[[{"header":{"parameterUnit":"m.s-1","parameterCategory":1,"la1":30.2991,"la2":30.254,"lo1":-89.0895,"lo2":-89.0444,"dy":0.0017,"dx":0.0017,"nx":28,"ny":28,"refTime":"2023-09-08T09:00:00:Z","depth":0,"parameterNumber":2,"parameterNumberName":"U-component_of_WINDS"},"data":[0,0,0,0,0,0,0,0,0,0,0,0,0,0,0,0,0,0,0,0,0,0,0,0,0,0,0,0,0,0,0,0,0,0,0,0,0,0,0,0,0,0,0,0,0,0,0,0,0,0,0,0,0,0,0,0,0,0,0.8744,0.8745,0,0.8816,0.8817,0.8817,0.8871,0.8871,0.8872,0.8872,0.8948,0.895,0.8951,0,0,0,0,0,0,0,0,0,0,0,0,0,0.8656,0.8657,0.8744,0.8745,0.8746,0.8816,0.8817,0.8818,0.8871,0.8871,0.8872,0.8873,0.8948,0.895,0.8952,0,0,0,0,0,0,0,0,0,0,0,0,0,0.8708,0.8658,0.8744,0.8781,0.8785,0.8816,0.8817,0.8818,0.8871,0.8871,0.8872,0.8873,0.8947,0.895,0.8952,0.8953,0,0,0.8959,0.896,0,0,0,0,0,0,0,0,0.8705,0.8711,0.8774,0.8778,0.8783,0.8835,0.8814,0.8863,0.8871,0.8838,0.8872,0.8873,0.891,0.8916,0.8928,0.8956,0.8959,0.8959,0.8961,0.8962,0.8963,0,0,0,0,0,0,0,0.8701,0.8708,0.8773,0.8775,0.878,0.8795,0.8803,0.8823,0.8869,0.8841,0.8845,0.8853,0.8913,0.8925,0.893,0.8961,0.8959,0.8961,0.8963,0.8964,0.8994,0.8994,0,0,0,0,0,0,0.8691,0.8705,0.877,0.8775,0.8744,0.8796,0.8805,0.8818,0.8869,0.8878,0.8852,0.8855,0.8921,0.8927,0.8933,0.8937,0.8962,0.8964,0.8965,0.8995,0.8994,0.8993,0,0,0,0,0,0,0.8689,0.8697,0.8767,0.8741,0.8751,0.8796,0.881,0.8819,0.8831,0.8878,0.8886,0.8856,0.8922,0.8929,0.8947,0.8941,0.8965,0.8967,0.8996,0.8995,0.8994,0.8946,0,0,0,0,0,0,0.8686,0.8695,0.8695,0.874,0.8752,0.8779,0.881,0.882,0.8835,0.8839,0.8884,0.8892,0.8923,0.8943,0.895,0.8944,0.8969,0.8996,0.8995,0.8994,0.8948,0.8944,0.8939,0,0,0,0,0,0.8683,0.8679,0.8695,0.8703,0.8753,0.8779,0.8786,0.8821,0.8834,0.8835,0.8865,0.8891,0.894,0.8945,0.8952,0.8948,0.8997,0.8995,0.8994,0.895,0.8944,0.894,0,0,0,0,0,0,0.8633,0.8686,0.8704,0.8715,0.8742,0.8788,0.879,0.8813,0.8838,0.8841,0.8884,0.8894,0.8907,0.893,0.8933,0.8952,0.8972,0.8972,0.8936,0.8931,0.8927,0.8921,0.8971,0,0,0,0,0,0.8623,0.8639,0.8685,0.869,0.8703,0.8744,0.8757,0.8781,0.8811,0.8823,0.8855,0.8884,0.8906,0.892,0.8943,0.8952,0.8963,0.8953,0.8948,0.8944,0.8944,0.8951,0.8947,0.8989,0.8989,0.8989,0,0,0.8603,0.8634,0.8641,0.8681,0.8705,0.8721,0.8753,0.8769,0.8782,0.8826,0.8844,0.8869,0.8904,0.8917,0.8925,0.8937,0.8935,0.8943,0.8939,0.8941,0.8949,0.8945,0.8941,0.8988,0.8988,0.8988,0,0,0.8575,0.8599,0.8607,0.863,0.8666,0.8693,0.8695,0.8738,0.8755,0.8774,0.8808,0.8825,0.8862,0.8886,0.8903,0.8885,0.891,0.8892,0.8868,0.8874,0.8871,0.8868,0.8862,0.8859,0.8891,0.8891,0.8891,0,0.8545,0.857,0.8607,0.8621,0.8638,0.8678,0.8686,0.8708,0.8749,0.876,0.8773,0.8821,0.8848,0.8867,0.8863,0.8876,0.8879,0.8886,0.8868,0.8866,0.8864,0.8858,0.8856,0.8888,0.8889,0.8889,0.8889,0,0.8533,0.855,0.8552,0.859,0.8607,0.8618,0.8658,0.8671,0.8694,0.8721,0.874,0.8774,0.8805,0.8811,0.8835,0.8835,0.8841,0.886,0.8881,0.8857,0.8852,0.885,0.8885,0.8886,0.8886,0.8887,0,0,0.8474,0.8533,0.8533,0.8552,0.8594,0.8609,0.8622,0.8652,0.8662,0.869,0.8703,0.8734,0.8752,0.8772,0.8798,0.8804,0.8787,0.8823,0.8824,0.8815,0.879,0.8775,0.8771,0.8804,0.8804,0.8804,0.8787,0,0.8452,0.8477,0.8511,0.8525,0.8542,0.8581,0.8593,0.8621,0.8646,0.8665,0.8694,0.8715,0.8738,0.875,0.8757,0.8788,0.8783,0.879,0.8817,0.8817,0.8806,0.8769,0.8753,0.8735,0.8785,0.8785,0.8785,0,0.843,0.8455,0.847,0.8512,0.852,0.853,0.856,0.8578,0.8611,0.8629,0.8651,0.868,0.8697,0.8716,0.8741,0.8744,0.8758,0.8775,0.8775,0.8779,0.8799,0.8771,0.873,0.8727,0.8782,0.8783,0.8783,0,0.8385,0.8423,0.8437,0.8451,0.8501,0.8507,0.8528,0.8562,0.8578,0.8605,0.8615,0.8644,0.866,0.8682,0.8718,0.8729,0.8739,0.8761,0.8755,0.8754,0.8755,0.8754,0.8715,0.8764,0.8764,0.8764,0.8764,0,0.8357,0.8364,0.8418,0.8426,0.8436,0.8476,0.8486,0.8511,0.8541,0.8556,0.8592,0.8605,0.8652,0.8672,0.87,0.8716,0.8723,0.8739,0.8746,0.8735,0.8733,0.8744,0.8746,0.8763,0.8763,0.8764,0.8764,0,0.8308,0.8344,0.8362,0.8407,0.8419,0.8425,0.8464,0.8475,0.8503,0.8521,0.8528,0.8572,0.8596,0.8635,0.8671,0.869,0.8701,0.8714,0.869,0.8694,0.8685,0.8685,0.8652,0.8649,0.87,0.8699,0.8699,0,0.8287,0.8294,0.834,0.8353,0.8372,0.8391,0.8408,0.8448,0.8464,0.8502,0.8508,0.8535,0.8559,0.8597,0.8633,0.8661,0.8674,0.866,0.8679,0.8667,0.8674,0.8672,0.8673,0.8656,0.8655,0.8654,0.8654,0,0.8247,0.8264,0.8286,0.8314,0.8332,0.8356,0.8382,0.839,0.8436,0.8452,0.8477,0.8496,0.8533,0.856,0.8593,0.8616,0.8642,0.8648,0.8648,0.8637,0.8622,0.863,0.8677,0.8648,0.8649,0.8649,0.865,0.865,0.8211,0.8219,0.8253,0.8276,0.83,0.8324,0.8336,0.8365,0.8386,0.8419,0.8442,0.8466,0.85,0.8547,0.8569,0.8589,0.86,0.86,0.86,0.8599,0.8595,0.8619,0.8595,0.8595,0.8595,0.8596,0.8596,0,0.8172,0.8196,0.8217,0.8252,0.827,0.8294,0.8324,0.8338,0.8358,0.8388,0.841,0.844,0.8466,0.8504,0.8533,0.8542,0.8555,0.8548,0.8548,0.8553,0.8583,0.858,0.8537,0.8537,0.8537,0.8537,0.8537,0.8537,0.8154,0.8169,0.8191,0.8218,0.8242,0.8265,0.8281,0.8303,0.8327,0.8357,0.8379,0.8404,0.8437,0.8469,0.8495,0.8505,0.8514,0.8504,0.8518,0.8545,0.8551,0.8556,0.8553,0.8505,0.8505,0.8486,0.8486,0.8486]},{"header":{"parameterUnit":"m.s-1","parameterCategory":1,"la1":30.2991,"la2":30.254,"lo1":-89.0895,"lo2":-89.0444,"dy":0.0017,"dx":0.0017,"nx":28,"ny":28,"refTime":"2023-09-08T09:00:00:Z","depth":0,"parameterNumber":3,"parameterNumberName":"V-component_of_WINDS"},"data":[0,0,0,0,0,0,0,0,0,0,0,0,0,0,0,0,0,0,0,0,0,0,0,0,0,0,0,0,0,0,0,0,0,0,0,0,0,0,0,0,0,0,0,0,0,0,0,0,0,0,0,0,0,0,0,0,0,0,1.1955,1.1955,0,1.1916,1.1915,1.1915,1.1871,1.187,1.1869,1.1869,1.1828,1.1827,1.1827,0,0,0,0,0,0,0,0,0,0,0,0,0,1.1991,1.199,1.1956,1.1955,1.1955,1.1916,1.1915,1.1915,1.1871,1.187,1.1869,1.1868,1.1828,1.1827,1.1827,0,0,0,0,0,0,0,0,0,0,0,0,0,1.1966,1.199,1.1956,1.1928,1.1925,1.1916,1.1915,1.1915,1.1871,1.187,1.1869,1.1868,1.1828,1.1827,1.1826,1.1842,0,0,1.1824,1.1824,0,0,0,0,0,0,0,0,1.1967,1.1964,1.1932,1.193,1.1926,1.1897,1.1913,1.189,1.1871,1.1891,1.1869,1.1868,1.1851,1.1849,1.1843,1.184,1.1838,1.1824,1.1824,1.1823,1.1823,0,0,0,0,0,0,0,1.1969,1.1966,1.194,1.1932,1.1928,1.1917,1.1912,1.1908,1.1877,1.189,1.1886,1.1882,1.185,1.1844,1.1842,1.1837,1.1824,1.1824,1.1823,1.1823,1.184,1.1841,0,0,0,0,0,0,1.1975,1.1968,1.1941,1.1939,1.1945,1.1917,1.1912,1.1908,1.1877,1.1872,1.1883,1.188,1.1846,1.1843,1.1841,1.1853,1.1823,1.1823,1.1822,1.1839,1.184,1.1841,0,0,0,0,0,0,1.1976,1.1973,1.1943,1.1952,1.1947,1.1917,1.1913,1.1907,1.1902,1.1872,1.1867,1.1883,1.1845,1.1842,1.1841,1.1851,1.1822,1.1822,1.1838,1.1839,1.1841,1.1881,0,0,0,0,0,0,1.1977,1.1974,1.198,1.1953,1.1947,1.1944,1.1914,1.1907,1.1901,1.1897,1.1871,1.1866,1.1844,1.1842,1.184,1.185,1.1821,1.1837,1.1839,1.184,1.1878,1.1883,1.1888,0,0,0,0,0,1.1979,1.1993,1.198,1.1977,1.1954,1.1945,1.1942,1.1917,1.1902,1.1907,1.1888,1.1867,1.1851,1.1842,1.184,1.1849,1.1836,1.1838,1.184,1.1876,1.1882,1.1887,0,0,0,0,0,0,1.2023,1.1989,1.1974,1.1981,1.1966,1.1938,1.1943,1.1924,1.1913,1.191,1.1879,1.1874,1.1876,1.1863,1.1854,1.1861,1.184,1.1842,1.1869,1.1874,1.1879,1.1881,1.1821,0,0,0,0,0,1.2033,1.2029,1.2,1.2008,1.2002,1.1974,1.1969,1.1951,1.1934,1.1928,1.1909,1.1893,1.1884,1.1879,1.1869,1.1877,1.1869,1.1882,1.1887,1.189,1.1891,1.1891,1.1896,1.1848,1.1848,1.1848,0,0,1.2055,1.2036,1.2035,1.2017,1.2003,1.1998,1.1969,1.1966,1.1962,1.1927,1.1924,1.191,1.189,1.1893,1.1893,1.1882,1.1903,1.1893,1.1896,1.1895,1.1894,1.1898,1.1902,1.1849,1.1849,1.1849,0,0,1.209,1.2077,1.2081,1.2068,1.2047,1.2028,1.203,1.2004,1.1992,1.1989,1.1962,1.1957,1.1943,1.1929,1.192,1.1949,1.1928,1.1947,1.197,1.197,1.1974,1.1977,1.1985,1.1988,1.1948,1.1949,1.1949,0,1.2119,1.2112,1.2086,1.2083,1.2075,1.2043,1.2046,1.2034,1.2012,1.2006,1.1995,1.1975,1.196,1.1957,1.1963,1.1959,1.1957,1.1949,1.1976,1.1979,1.1981,1.1988,1.1991,1.1951,1.1951,1.195,1.195,0,1.2147,1.2142,1.2148,1.2126,1.2118,1.2119,1.2091,1.2087,1.2069,1.2051,1.2047,1.2027,1.2012,1.201,1.1994,1.2004,1.1998,1.1982,1.196,1.1988,1.1994,1.1997,1.1954,1.1953,1.1952,1.1952,0,0,1.2209,1.2172,1.2174,1.2162,1.2137,1.2132,1.213,1.2115,1.211,1.2096,1.2092,1.208,1.2064,1.2054,1.2035,1.2036,1.2056,1.2019,1.2018,1.2024,1.2064,1.2075,1.2078,1.2043,1.2044,1.2044,1.2065,0,1.2238,1.2232,1.2208,1.221,1.2203,1.2173,1.2171,1.2154,1.2137,1.2129,1.211,1.2101,1.2082,1.2075,1.2075,1.2054,1.2063,1.2053,1.2037,1.2037,1.2041,1.2082,1.2093,1.2114,1.2067,1.2067,1.2068,0,1.2271,1.2257,1.2258,1.223,1.2227,1.2226,1.2208,1.2201,1.2181,1.2169,1.2157,1.2135,1.213,1.2112,1.2103,1.2096,1.2088,1.2077,1.2077,1.2073,1.2053,1.2076,1.212,1.2122,1.2072,1.2071,1.2071,0,1.2312,1.2294,1.2291,1.2283,1.2252,1.2251,1.2238,1.2217,1.2209,1.2194,1.2188,1.2173,1.2164,1.2152,1.2126,1.2116,1.2119,1.2099,1.2107,1.2107,1.2107,1.2107,1.2148,1.2107,1.2107,1.2107,1.2107,0,1.2345,1.2346,1.2309,1.2307,1.2306,1.2278,1.2278,1.2262,1.2244,1.2237,1.2211,1.2205,1.2173,1.2163,1.2143,1.2137,1.2134,1.2123,1.2117,1.2123,1.2125,1.2117,1.2114,1.2107,1.2107,1.2107,1.2107,0,1.239,1.2365,1.236,1.2331,1.2323,1.2324,1.2298,1.2294,1.2276,1.2268,1.2264,1.2235,1.2222,1.2195,1.2176,1.2162,1.216,1.2151,1.2166,1.2162,1.217,1.2169,1.2205,1.2207,1.2167,1.2168,1.2168,0,1.2411,1.2411,1.2381,1.2375,1.2363,1.2353,1.2344,1.2316,1.2308,1.2284,1.2283,1.2268,1.2254,1.2234,1.221,1.2194,1.2184,1.2198,1.2181,1.2187,1.2181,1.218,1.2179,1.2201,1.2201,1.2202,1.2202,0,1.2451,1.2438,1.2427,1.241,1.24,1.2386,1.237,1.2367,1.2335,1.2327,1.2313,1.2302,1.2281,1.2265,1.2246,1.2231,1.221,1.2208,1.2208,1.2214,1.2221,1.2215,1.2173,1.2207,1.2206,1.2206,1.2206,1.2205,1.2482,1.2479,1.2458,1.2445,1.243,1.2416,1.241,1.2391,1.2379,1.236,1.2344,1.2331,1.2309,1.228,1.2267,1.2255,1.2246,1.2247,1.2247,1.2247,1.2249,1.2225,1.2252,1.2252,1.2252,1.2252,1.2251,0,1.2518,1.2502,1.2491,1.2469,1.2459,1.2442,1.2423,1.2415,1.2404,1.2386,1.2373,1.2356,1.234,1.2315,1.2297,1.2293,1.2283,1.2289,1.2288,1.2284,1.226,1.226,1.2297,1.2297,1.2297,1.2297,1.2297,1.2297,1.2535,1.2529,1.2514,1.2499,1.2484,1.2471,1.2461,1.2447,1.2432,1.2415,1.2402,1.2386,1.2364,1.2344,1.2328,1.2321,1.2315,1.2323,1.2313,1.229,1.2286,1.2282,1.2282,1.2323,1.2323,1.2338,1.2338,1.2338]}]]